K3JAR-3 Weather Reports


Display with metric or nautical units.
time (UTC)temp
F
wind
direction
speed
MPH
gust
MPH
rain 1hr
in
rain 24hr
in
rain mn
in
humidity
%
barometer
mb
20260503203030 80 170 8.0 13.0 0.00 0.00 0.00 36 1020.0
20260503202049 81 216 9.0 12.0 0.00 0.00 0.00 36 1020.2
20260503201015 81 168 8.0 13.0 0.00 0.00 0.00 35 1020.3
20260503200020 81 196 7.0 10.0 0.00 0.00 0.00 39 1020.4
20260503195044 81 215 6.0 9.0 0.00 0.00 0.00 34 1020.7
20260503194021 81 188 8.0 12.0 0.00 0.00 0.00 38 1020.9
20260503193039 81 221 8.0 11.0 0.00 0.00 0.00 35 1021.0
20260503192016 80 180 9.0 11.0 0.00 0.00 0.00 37 1021.2
20260503191026 80 194 7.0 10.0 0.00 0.00 0.00 40 1021.4
20260503190030 81 209 8.0 13.0 0.00 0.00 0.00 38 1021.4
20260503185016 80 185 8.0 11.0 0.00 0.00 0.00 38 1021.5
20260503184020 80 171 7.0 11.0 0.00 0.00 0.00 39 1021.7
20260503183104 79 186 8.0 12.0 0.00 0.00 0.00 40 1021.9
20260503182109 79 184 8.0 11.0 0.00 0.00 0.00 43 1022.0
20260503181032 79 191 7.0 10.0 0.00 0.00 0.00 43 1022.2
20260503180018 79 172 6.0 8.0 0.00 0.00 0.00 46 1022.4
20260503175022 79 177 6.0 9.0 0.00 0.00 0.00 47 1022.6
20260503174026 79 222 8.0 12.0 0.00 0.00 0.00 44 1022.8
20260503173029 79 218 6.0 10.0 0.00 0.00 0.00 46 1022.9
20260503172016 78 181 9.0 10.0 0.00 0.00 0.00 45 1023.1
20260503171020 78 198 6.0 10.0 0.00 0.00 0.00 48 1023.2
20260503131045 60 195 3.0 5.0 0.00 0.00 0.00 78 1023.4
20260503081018 56 163 2.0 3.0 0.00 0.00 0.00 78 1021.9
20260503072020 58 190 2.0 3.0 0.00 0.00 0.00 72 1022.4
20260503071024 58 193 2.0 3.0 0.00 0.00 0.00 71 1022.4
20260503055024 60 186 4.0 6.0 0.00 0.00 0.00 70 1022.2
20260503054043 60 185 4.0 5.0 0.00 0.00 0.00 70 1022.2
20260503053027 60 192 3.0 4.0 0.00 0.00 0.00 71 1022.1
20260503052025 60 180 3.0 4.0 0.00 0.00 0.00 71 1022.1
20260503051017 60 177 3.0 3.0 0.00 0.00 0.00 72 1022.1
20260503050026 61 167 3.0 4.0 0.00 0.00 0.00 70 1021.9
20260503045038 61 171 3.0 4.0 0.00 0.00 0.00 69 1021.9
20260503044017 61 163 3.0 4.0 0.00 0.00 0.00 67 1022.1
20260503043014 62 163 2.0 3.0 0.00 0.00 0.00 65 1022.0
20260503042018 62 164 2.0 3.0 0.00 0.00 0.00 64 1021.9
20260503041022 62 178 2.0 3.0 0.00 0.00 0.00 63 1021.9
20260503040026 63 190 3.0 4.0 0.00 0.00 0.00 61 1021.9
20260503035110 63 205 3.0 3.0 0.00 0.00 0.00 60 1022.1
20260503034016 64 183 2.0 3.0 0.00 0.00 0.00 59 1022.1
20260503033020 64 172 2.0 3.0 0.00 0.00 0.00 58 1022.0
20260503032024 64 187 2.0 3.0 0.00 0.00 0.00 57 1021.9
20260503031028 65 182 2.0 3.0 0.00 0.00 0.00 54 1021.9
20260503030032 66 172 3.0 3.0 0.00 0.00 0.00 54 1021.7
20260503025118 66 160 2.0 2.0 0.00 0.00 0.00 53 1021.5
20260503024022 66 182 2.0 2.0 0.00 0.00 0.00 51 1021.4
20260503023026 67 167 2.0 2.0 0.00 0.00 0.00 50 1021.4
20260503022030 68 162 2.0 3.0 0.00 0.00 0.00 48 1021.3
20260503021016 68 161 2.0 3.0 0.00 0.00 0.00 47 1021.2
20260503020021 68 176 2.0 2.0 0.00 0.00 0.00 46 1021.0
20260503015025 69 180 2.0 2.0 0.00 0.00 0.00 45 1021.2
20260503014028 69 168 2.0 2.0 0.00 0.00 0.00 44 1020.9
20260503013032 70 165 2.0 3.0 0.00 0.00 0.00 42 1020.9
20260503012018 71 162 1.0 2.0 0.00 0.00 0.00 38 1020.8
20260503011022 74 0.0 0.0 0.00 0.00 0.00 37 1020.8
20260503010026 76 0.0 0.0 0.00 0.00 0.00 36 1020.8
20260503005050 75 0.0 0.0 0.00 0.00 0.00 37 1020.7
20260503004015 75 301 1.0 3.0 0.00 0.00 0.00 37 1020.7
20260503003019 75 46 0.0 1.0 0.00 0.00 0.00 39 1020.7
20260503002023 77 347 1.0 2.0 0.00 0.00 0.00 34 1020.7
20260503001102 77 299 2.0 3.0 0.00 0.00 0.00 34 1020.7
20260503000019 77 280 3.0 6.0 0.00 0.00 0.00 34 1020.8
20260502235017 77 270 4.0 6.0 0.00 0.00 0.00 33 1020.8
20260502234015 78 269 4.0 6.0 0.00 0.00 0.00 32 1020.8
20260502233025 78 261 3.0 6.0 0.00 0.00 0.00 32 1020.9
20260502232029 78 285 3.0 5.0 0.00 0.00 0.00 33 1020.9
20260502231020 78 273 4.0 7.0 0.00 0.00 0.00 32 1020.9
20260502230019 78 272 4.0 6.0 0.00 0.00 0.00 34 1020.8
20260502225023 78 247 4.0 6.0 0.00 0.00 0.00 33 1020.9
20260502224027 78 267 5.0 7.0 0.00 0.00 0.00 34 1021.0
20260502223031 78 263 3.0 6.0 0.00 0.00 0.00 34 1021.0
20260502222017 78 108 2.0 4.0 0.00 0.00 0.00 36 1021.1
20260502221021 77 25 4.0 6.0 0.00 0.00 0.00 35 1021.2
20260502220025 76 128 2.0 4.0 0.00 0.00 0.00 32 1021.2
20260502215029 76 24 2.0 3.0 0.00 0.00 0.00 35 1021.4
20260502214015 75 331 3.0 6.0 0.00 0.00 0.00 35 1021.5
20260502213019 77 343 4.0 8.0 0.00 0.00 0.00 33 1021.6
20260502212023 78 1 4.0 8.0 0.00 0.00 0.00 34 1021.7
20260502211027 78 290 3.0 5.0 0.00 0.00 0.00 34 1021.7
20260502210031 78 297 6.0 11.0 0.00 0.00 0.00 33 1021.9
20260502205016 78 85 5.0 7.0 0.00 0.00 0.00 34 1022.1
20260502204020 77 293 3.0 6.0 0.00 0.00 0.00 34 1022.2